Hot Springs, VA

1:13 PM EDT on July 27, 2017 (GMT -0400)
Ingalls

Weather History for KHSP - January, 2010

Change the Weather History Date:

Wednesday, January 6, 2010

  Actual Average Record
Temperature  
Mean Temperature 14 °F -  
Max Temperature 17 °F 34 °F 60 °F (1998)
Min Temperature 10 °F 21 °F -11 °F (2014)
Degree Days  
Heating Degree Days 52    
Moisture  
Dew Point 12 °F    
Average Humidity 95    
Maximum Humidity 100    
Minimum Humidity 79    
Precipitation  
Precipitation 0.00 in - - ()
Sea Level Pressure  
Sea Level Pressure 29.82 in    
Wind  
Wind Speed 22 mph (WNW)    
Max Wind Speed 28 mph    
Max Gust Speed 40 mph    
Visibility 7 miles    
Events Snow    
Averages and records for this station are not official NWS values.
T = Trace of Precipitation, MM = Missing Value Source: NWS Daily Summary

Daily Weather History Graph

Daily Weather History Graph

Search for Another Location

Airport or City:

Trip Planner

Search our weather history database for the weather conditions in past years. The results will help you decide how hot, cold, wet, or windy it might be!

Date:

Astronomy

Jan. 06, 2010 Rise Set
Actual Time 7:35 AM EST 5:15 PM EST
Civil Twilight 7:06 AM EST 5:44 PM EST
Nautical Twilight 6:33 AM EST 6:16 PM EST
Astronomical Twilight 6:01 AM EST 6:48 PM EST
Moon No Moon Rise 11:07 AM EST (1/6)
Length of Visible Light 10h 37m
Length of Day
9h 39m
Waning Gibbous, 58% of the Moon is Illuminated
Jan 6
Waning Gibbous
Jan 7
Last Quarter
Jan 15
New
Jan 23
First Quarter
Jan 30
Full

Hourly Weather History & Observations

Time (EST) Temp. Windchill Dew Point Humidity Pressure Visibility Wind Dir Wind Speed Gust Speed Precip Events Conditions
12:00 AM 10.4 °F -10.3 °F 8.6 °F 92% 29.77 in 10.0 mi WNW 25.3 mph 40.3 mph N/A Snow Light Snow
12:21 AM 10.4 °F -10.3 °F 8.6 °F 92% 29.77 in 10.0 mi West 25.3 mph 32.2 mph N/A Snow Light Snow
12:40 AM 10.4 °F -10.3 °F 8.6 °F 92% 29.77 in 7.0 mi WNW 25.3 mph 33.4 mph N/A Snow Light Snow
12:59 AM 10.4 °F -9.5 °F 8.6 °F 92% 29.77 in 10.0 mi WNW 23.0 mph 32.2 mph N/A Snow Light Snow
1:20 AM 10.4 °F -8.6 °F 8.6 °F 92% 29.77 in 10.0 mi WNW 20.7 mph 31.1 mph N/A Snow Light Snow
1:41 AM 10.4 °F -9.1 °F 8.6 °F 92% 29.77 in 10.0 mi WNW 21.9 mph 29.9 mph N/A Snow Light Snow
1:59 AM 10.4 °F -8.6 °F 10.4 °F 100% 29.77 in 10.0 mi WNW 20.7 mph 27.6 mph N/A Snow Light Snow
2:21 AM 10.4 °F -7.7 °F 10.4 °F 100% 29.77 in 5.0 mi WNW 18.4 mph 31.1 mph N/A Snow Light Snow
2:39 AM 10.4 °F -8.6 °F 10.4 °F 100% 29.78 in 5.0 mi WNW 20.7 mph 29.9 mph N/A Snow Light Snow
2:59 AM 10.4 °F -7.2 °F 10.4 °F 100% 29.78 in 4.0 mi WNW 17.3 mph 24.2 mph N/A Snow Light Snow
3:19 AM 10.4 °F -8.2 °F 10.4 °F 100% 29.79 in 2.0 mi WNW 19.6 mph 26.5 mph N/A Snow Light Snow
3:39 AM 10.4 °F -7.7 °F 10.4 °F 100% 29.80 in 2.0 mi West 18.4 mph 25.3 mph N/A Snow Light Snow
4:00 AM 10.4 °F -9.1 °F 10.4 °F 100% 29.78 in 3.0 mi West 21.9 mph 31.1 mph N/A Snow Light Snow
4:19 AM 10.4 °F -9.5 °F 10.4 °F 100% 29.78 in 3.0 mi West 23.0 mph 29.9 mph N/A Snow Light Snow
4:39 AM 10.4 °F -8.2 °F 10.4 °F 100% 29.78 in 4.0 mi West 19.6 mph 24.2 mph N/A Snow Light Snow
5:00 AM 10.4 °F -8.6 °F 10.4 °F 100% 29.79 in 3.0 mi WNW 20.7 mph 29.9 mph N/A Snow Light Snow
5:20 AM 10.4 °F -8.6 °F 10.4 °F 100% 29.79 in 1.8 mi WNW 20.7 mph 25.3 mph N/A Snow Light Snow
5:41 AM 10.4 °F -7.7 °F 10.4 °F 100% 29.78 in - West 18.4 mph 27.6 mph N/A   Overcast
5:59 AM 10.4 °F -9.1 °F 10.4 °F 100% 29.78 in - West 21.9 mph 31.1 mph N/A Snow Light Snow
6:19 AM 10.4 °F -8.2 °F 10.4 °F 100% 29.79 in - West 19.6 mph 27.6 mph N/A Snow Light Snow
6:39 AM 10.4 °F -7.7 °F 10.4 °F 100% 29.80 in 1.8 mi West 18.4 mph 26.5 mph N/A Snow Light Snow
6:59 AM 10.4 °F -8.6 °F 10.4 °F 100% 29.81 in 3.0 mi West 20.7 mph 27.6 mph N/A Snow Light Snow
7:20 AM 10.4 °F -10.3 °F 10.4 °F 100% 29.81 in 3.0 mi West 25.3 mph 31.1 mph N/A Snow Light Snow
7:39 AM 10.4 °F -9.9 °F 10.4 °F 100% 29.81 in 2.0 mi West 24.2 mph 31.1 mph N/A Snow Light Snow
7:59 AM 10.4 °F -10.7 °F 10.4 °F 100% 29.82 in 1.8 mi West 26.5 mph 33.4 mph N/A Snow Light Snow
8:21 AM 10.4 °F -11.0 °F 10.4 °F 100% 29.81 in 2.5 mi West 27.6 mph 32.2 mph N/A Snow Light Snow
8:39 AM 10.4 °F -9.1 °F 10.4 °F 100% 29.82 in 3.0 mi West 21.9 mph 36.8 mph N/A Snow Light Snow
9:01 AM 10.4 °F -8.6 °F 10.4 °F 100% 29.83 in 2.5 mi West 20.7 mph 26.5 mph N/A Snow Light Snow
9:19 AM 10.4 °F -8.2 °F 10.4 °F 100% 29.85 in 4.0 mi West 19.6 mph - N/A Snow Light Snow
9:40 AM 12.2 °F -7.9 °F 12.2 °F 100% 29.86 in 4.0 mi WNW 25.3 mph 31.1 mph N/A Snow Light Snow
9:59 AM 12.2 °F -7.5 °F 12.2 °F 100% 29.84 in 5.0 mi WNW 24.2 mph 35.7 mph N/A Snow Light Snow
10:19 AM 12.2 °F -7.5 °F 12.2 °F 100% 29.86 in 5.0 mi WNW 24.2 mph 29.9 mph N/A Snow Light Snow
10:39 AM 14.0 °F -5.5 °F 12.2 °F 93% 29.87 in 7.0 mi West 25.3 mph 31.1 mph N/A Snow Light Snow
11:01 AM 14.0 °F -5.8 °F 14.0 °F 100% 29.86 in 10.0 mi WNW 26.5 mph 33.4 mph N/A Snow Light Snow
11:19 AM 14.0 °F -4.7 °F 14.0 °F 100% 29.86 in 10.0 mi West 23.0 mph - N/A Snow Light Snow
11:39 AM 15.8 °F -2.3 °F 14.0 °F 93% 29.86 in 10.0 mi West 23.0 mph 29.9 mph N/A Snow Light Snow
11:59 AM 15.8 °F -2.7 °F 14.0 °F 93% 29.85 in 10.0 mi WNW 24.2 mph 28.8 mph N/A Snow Light Snow
12:19 PM 15.8 °F -1.9 °F 15.8 °F 100% 29.84 in 10.0 mi WNW 21.9 mph 28.8 mph N/A   Overcast
12:39 PM 15.8 °F -2.7 °F 14.0 °F 93% 29.84 in 10.0 mi WNW 24.2 mph 32.2 mph N/A   Overcast
12:59 PM 15.8 °F -3.7 °F 14.0 °F 93% 29.84 in 10.0 mi WNW 27.6 mph 34.5 mph N/A Snow Light Snow
1:19 PM 17.6 °F 0.1 °F 14.0 °F 86% 29.83 in 10.0 mi WNW 23.0 mph 31.1 mph N/A   Overcast
1:39 PM 17.6 °F 0.1 °F 12.2 °F 79% 29.84 in 10.0 mi WNW 23.0 mph 31.1 mph N/A Snow Light Snow
1:59 PM 17.6 °F 0.1 °F 12.2 °F 79% 29.84 in 10.0 mi West 23.0 mph 28.8 mph N/A   Overcast
2:19 PM 17.6 °F -0.3 °F 14.0 °F 86% 29.84 in 10.0 mi WNW 24.2 mph 29.9 mph N/A   Overcast
2:39 PM 17.6 °F 0.1 °F 12.2 °F 79% 29.85 in 10.0 mi WNW 23.0 mph 29.9 mph N/A   Overcast
2:59 PM 17.6 °F 1.7 °F 12.2 °F 79% 29.85 in 10.0 mi West 18.4 mph 27.6 mph N/A   Overcast
3:21 PM 17.6 °F 0.9 °F 12.2 °F 79% 29.85 in 10.0 mi WNW 20.7 mph 27.6 mph N/A   Overcast
3:41 PM 17.6 °F 1.3 °F 12.2 °F 79% 29.85 in 10.0 mi West 19.6 mph 26.5 mph N/A   Overcast
3:59 PM 17.6 °F 1.7 °F 12.2 °F 79% 29.86 in 10.0 mi West 18.4 mph 26.5 mph N/A   Overcast
4:19 PM 15.8 °F -0.2 °F 14.0 °F 93% 29.85 in 10.0 mi WNW 17.3 mph 25.3 mph N/A   Overcast
4:39 PM 17.6 °F 3.7 °F 14.0 °F 86% 29.85 in 10.0 mi WNW 13.8 mph 23.0 mph N/A   Overcast
5:02 PM 15.8 °F -0.6 °F 14.0 °F 93% 29.85 in 10.0 mi WNW 18.4 mph 26.5 mph N/A   Overcast
5:21 PM 15.8 °F -1.5 °F 14.0 °F 93% 29.86 in 10.0 mi WNW 20.7 mph 28.8 mph N/A   Overcast
5:39 PM 15.8 °F -2.3 °F 14.0 °F 93% 29.87 in 10.0 mi West 23.0 mph - N/A   Overcast
5:59 PM 15.8 °F -1.9 °F 14.0 °F 93% 29.88 in 10.0 mi West 21.9 mph 29.9 mph N/A   Overcast
6:19 PM 15.8 °F -2.3 °F 14.0 °F 93% 29.88 in 10.0 mi West 23.0 mph 28.8 mph N/A   Overcast
6:39 PM 15.8 °F -2.7 °F 14.0 °F 93% 29.89 in 10.0 mi WNW 24.2 mph 31.1 mph N/A   Overcast
6:59 PM 14.0 °F -5.8 °F 14.0 °F 100% 29.90 in 10.0 mi WNW 26.5 mph 29.9 mph N/A   Overcast
7:19 PM 14.0 °F -4.7 °F 14.0 °F 100% 29.90 in 10.0 mi WNW 23.0 mph 31.1 mph N/A Snow Light Snow
7:39 PM 14.0 °F -5.5 °F 12.2 °F 93% 29.91 in 10.0 mi WNW 25.3 mph 28.8 mph N/A Snow Light Snow
7:59 PM 12.2 °F -6.3 °F 12.2 °F 100% 29.90 in 10.0 mi WNW 20.7 mph 25.3 mph N/A Snow Light Snow
8:19 PM 12.2 °F -5.8 °F 12.2 °F 100% 29.89 in 10.0 mi WNW 19.6 mph 24.2 mph N/A   Overcast
8:39 PM 12.2 °F -5.3 °F 12.2 °F 100% 29.90 in 10.0 mi WNW 18.4 mph - N/A   Overcast
8:59 PM 12.2 °F -6.7 °F 12.2 °F 100% 29.89 in 10.0 mi WNW 21.9 mph 26.5 mph N/A   Overcast
9:21 PM 12.2 °F -5.8 °F 12.2 °F 100% 29.90 in 10.0 mi WNW 19.6 mph - N/A   Overcast
9:39 PM 12.2 °F -6.3 °F 12.2 °F 100% 29.91 in 10.0 mi WNW 20.7 mph - N/A Snow Light Snow
9:59 PM 12.2 °F -5.3 °F 12.2 °F 100% 29.91 in 10.0 mi WNW 18.4 mph 23.0 mph N/A Snow Light Snow
10:19 PM 12.2 °F -4.8 °F 12.2 °F 100% 29.91 in 10.0 mi West 17.3 mph - N/A Snow Light Snow
10:39 PM 12.2 °F -4.3 °F 12.2 °F 100% 29.90 in 10.0 mi West 16.1 mph - N/A Snow Light Snow
10:59 PM 12.2 °F -5.8 °F 12.2 °F 100% 29.90 in 10.0 mi West 19.6 mph - N/A Snow Light Snow
11:19 PM 12.2 °F -4.3 °F 12.2 °F 100% 29.90 in 10.0 mi West 16.1 mph 23.0 mph N/A   Overcast
11:39 PM 12.2 °F -4.3 °F 12.2 °F 100% 29.90 in 10.0 mi West 16.1 mph 20.7 mph N/A Snow Light Snow
11:59 PM 12.2 °F -4.8 °F 12.2 °F 100% 29.91 in 10.0 mi West 17.3 mph - N/A   Overcast